Погода в Каясуле

Россия / Ставропольский край     44°19′16″N   44°59′43″E
темп.,
°C
ветер,
м/с
пор.,
м/с
влажн.,
%
обл.,
%
осадки,
мм/ч
давл.,
гПа
погр.,
м
8 марта, пн
пн800:00−1юв37490 0.0 1022252
03:00−1юв36540 0.0 1022218
06:00−1ю35629 0.0 1022147
09:00+2ююв235130 0.0 1021357
12:00+5всв2240100 0.0 10191105
15:00+6всв2241100 0.0 10171441
18:00+4св2253100 0.0 101823
21:00+3юв2364100 0.0 101933
9 марта, вт
вт900:00+1ю337774 0.0 101849
03:00+1юз228486 0.0 101822
06:000з228293 0.0 101722
09:00+4зюз115985 0.0 1017308
12:00+7зюз11440 0.0 10161432
15:00+8юз244015 0.0 10151812
18:00+6зюз235098 0.0 101625
21:00+3сз6118798 0.0 1019626
10 марта, ср
ср1000:00+3сз4883100 0.0 1020644
03:00+1сз5876100 0.1 1021462
06:000зсз4869100 0.0 1023474
09:00+2зсз5754100 0.0 10241107
12:00+4сз684995 0.0 10231408
15:00+5сз674595 0.0 10221466
18:00+3с355193 0.0 1023181
21:00+1св575196 0.0 1023460
11 марта, чт
чт1100:000св5754100 0.0 1022535
03:00−2всв5783100 0.1 1022456
06:00−3всв5782100 0.7 1023564
09:00−3всв6888100 1.6 1023611
12:00−3всв6883100 1.1 1023784
15:00−3всв6887100 2.1 1023664
18:00−5в5894100 1.6 1026574
21:00−6всв4794100 3.0 1027491
12 марта, пт
пт1200:00−7св5786100 0.7 1028675
03:00−7св4667100 0.8 1029685
06:00−8св3668100 0.0 1031213
09:00−7всв455597 0.0 1033779
12:00−5всв334977 0.0 1033980
15:00−3в234341 0.0 10321243
18:00−7юв12550 0.0 103421
21:00−8вюв23660 0.0 103652